TimeCST,TemperatureF,Dew PointF,Humidity,Sea Level PressureIn,VisibilityMPH,Wind Direction,Wind SpeedMPH,Gust SpeedMPH,PrecipitationIn,Events,Conditions,WindDirDegrees,DateUTC
12:45 AM,69.8,64.4,83,30.09,10.0,SE,13.8,-,N/A,,Overcast,130,2013-03-08 06:45:00
12:53 AM,69.1,64.0,84,30.08,10.0,SE,13.8,-,N/A,,Mostly Cloudy,130,2013-03-08 06:53:00
1:08 AM,69.8,64.4,83,30.08,10.0,SE,15.0,-,N/A,,Scattered Clouds,130,2013-03-08 07:08:00
1:53 AM,68.0,63.0,84,30.06,10.0,SE,12.7,-,N/A,,Clear,130,2013-03-08 07:53:00
2:53 AM,68.0,63.0,84,30.04,10.0,SE,11.5,-,N/A,,Clear,140,2013-03-08 08:53:00
3:53 AM,66.9,63.0,87,30.02,10.0,SSE,10.4,-,N/A,,Clear,150,2013-03-08 09:53:00
4:53 AM,64.9,62.1,90,30.03,10.0,ESE,6.9,-,N/A,,Clear,120,2013-03-08 10:53:00
5:53 AM,64.0,61.0,90,30.04,10.0,ESE,4.6,-,N/A,,Clear,120,2013-03-08 11:53:00
6:53 AM,64.9,62.1,90,30.04,10.0,SE,5.8,-,N/A,,Clear,140,2013-03-08 12:53:00
7:53 AM,66.9,63.0,87,30.05,10.0,ESE,8.1,-,N/A,,Clear,110,2013-03-08 13:53:00
8:53 AM,69.1,63.0,81,30.04,10.0,ESE,12.7,-,N/A,,Clear,120,2013-03-08 14:53:00
9:53 AM,73.0,64.0,73,30.05,10.0,SE,13.8,21.9,N/A,,Scattered Clouds,140,2013-03-08 15:53:00
10:01 AM,73.4,64.4,73,30.07,10.0,SSE,15.0,-,N/A,,Mostly Cloudy,150,2013-03-08 16:01:00
10:43 AM,75.2,62.6,65,30.06,10.0,SE,24.2,34.5,N/A,,Mostly Cloudy,140,2013-03-08 16:43:00
10:53 AM,75.9,62.1,62,30.06,10.0,SSE,23.0,31.1,N/A,,Mostly Cloudy,150,2013-03-08 16:53:00
11:53 AM,77.0,62.1,60,30.04,10.0,SE,17.3,29.9,N/A,,Overcast,140,2013-03-08 17:53:00
12:53 PM,81.0,62.1,52,29.99,10.0,SE,20.7,33.4,N/A,,Overcast,140,2013-03-08 18:53:00
1:53 PM,80.1,61.0,52,29.96,10.0,SE,28.8,34.5,N/A,,Overcast,140,2013-03-08 19:53:00
2:53 PM,80.1,61.0,52,29.95,10.0,SE,21.9,36.8,N/A,,Mostly Cloudy,140,2013-03-08 20:53:00
3:53 PM,79.0,61.0,54,29.95,10.0,SE,23.0,31.1,N/A,,Partly Cloudy,140,2013-03-08 21:53:00
4:53 PM,77.0,62.1,60,29.97,10.0,SE,23.0,27.6,N/A,,Overcast,130,2013-03-08 22:53:00
5:53 PM,75.0,62.1,64,29.98,10.0,ESE,18.4,26.5,0.00,,Mostly Cloudy,120,2013-03-08 23:53:00
6:53 PM,73.9,62.1,66,30.00,10.0,SE,19.6,26.5,N/A,,Mostly Cloudy,140,2013-03-09 00:53:00
7:50 PM,73.4,64.4,73,30.02,10.0,ESE,16.1,24.2,N/A,,Overcast,120,2013-03-09 01:50:00
7:53 PM,73.0,64.0,73,30.01,10.0,ESE,13.8,24.2,N/A,,Overcast,120,2013-03-09 01:53:00
8:32 PM,73.4,64.4,73,30.03,10.0,SE,15.0,-,N/A,,Overcast,130,2013-03-09 02:32:00
8:39 PM,71.6,64.4,78,30.03,10.0,SE,17.3,25.3,N/A,,Overcast,130,2013-03-09 02:39:00
8:53 PM,72.0,64.0,76,30.02,10.0,ESE,15.0,-,N/A,,Overcast,120,2013-03-09 02:53:00
9:53 PM,72.0,64.0,76,30.02,10.0,SE,18.4,29.9,N/A,,Mostly Cloudy,140,2013-03-09 03:53:00
10:26 PM,71.6,64.4,78,30.02,10.0,SE,20.7,28.8,N/A,,Overcast,130,2013-03-09 04:26:00
10:53 PM,72.0,64.9,78,30.01,10.0,SE,15.0,-,N/A,,Overcast,130,2013-03-09 04:53:00
11:32 PM,71.6,64.4,78,30.01,10.0,SE,15.0,-,N/A,,Mostly Cloudy,140,2013-03-09 05:32:00
11:44 PM,71.6,64.4,78,30.01,10.0,SE,15.0,20.7,N/A,,Overcast,140,2013-03-09 05:44:00
11:53 PM,72.0,64.9,78,30.00,10.0,SE,15.0,-,N/A,,Overcast,140,2013-03-09 05:53:00